sat.trackr.live / text

‹ back to catalog

STARLINK-3294

NORAD 50829 · 2022-001AC

PAYLOAD ACTIVE UNKNOWN

§ Identity

Operator
Country
US
Launch date
2022-01-06
Launch site
AFETR
Launch vehicle
Mass (kg)
RCS (m²)

Purposes: comms

External: N2YO · Heavens-Above · Gunter

§ Orbital elements

Epoch: 2026-05-25T03:21:43.655040Z

Period
95.44 min
Inclination
53.2123°
Eccentricity
0.0001169
Mean motion
15.08835327 rev/d
Perigee alt
538.9 km
Apogee alt
540.6 km
Semi-major
6,917.9 km
B*
3.1360e-6
RAAN
185.9216°
Arg perigee
94.4052°
Mean anomaly
265.7074°
Rev number
24,194

§ Raw data

STARLINK-32941 50829U 22001AC  26145.14008860 -.00000238  00000+0  31360-5 0  99952 50829  53.2123 185.9216 0001169  94.4052 265.7074 15.08835327241948

JSON: /api/v1/satellites/50829 · /tle

For live sub-satellite position, see the globe view (requires WebGL).

§ Visibility from observer

Set your observer location to see the next 7 days of passes ≥ 10°. The values pass through the URL so the page stays shareable.

No JS? Fill the form by hand. The geolocation button needs JavaScript.